SCP
0 0 0 0 0 0 0 0 0 0 0 0 0 0 0 0 0 0 0 0 0 0
0 0 0 0 0 0 0 0 0 0 0 0 0 0 0 0 0 0 0 0 0 0
0 0 0 0 0 0 0 0 0 0 0 0 0 0 0 0 0 0 0 0 0 0
0 0 0 0 0 0 0 0 0 0 0 0 0 0 0 0 0 0 0 0 0 0
0 0 0 0 0 0 0 0 0 0 0 0 0 0 0 0 0 0 0 0 0 0
0 0 0 0 0 0 0 0 0 0 0 0 0 0 0 0 0 0 0 0 0 0
0 0 0 0 0 0 0 0 0 0 0 0 0 0 0 0 0 0 0 0 0 0
0 0 0 0 0 0 0 0 0 0 0 0 0 0 0 0 0 0 0 0 0 0
0 0 0 0 0 0 0 0 0 0 0 0 0 0 0 0 0 0 0 0 0 0
0 0 0 0 0 0 0 0 0 0 0 0 0 0 0 0 0 0 0 0 0 0
0 0 0 0 0 0 0 0 0 0 0 0 0 0 0 0 0 0 0 0 0 0
0 0 0 0 0 0 0 0 0 0 0 0 0 0 0 0 0 0 0 0 0 0
0 0 0 0 0 0 0 0 0 0 0 0 0 0 0 0 0 0 0 0 0 0
0 0 0 0 0 0 0 0 0 0 0 0 0 0 0 0 0 0 0 0 0 0
Wind_Speed_500mb
14 12 14 17 15 17 20 22 27 26 27 32 34 34 33 29 26 27 26 29 29 25
11 11 12 16 16 17 19 20 21 22 25 29 30 32 31 30 29 29 28 26 26 27
11 12 12 15 16 18 18 19 20 20 21 22 25 27 29 26 28 28 27 26 28 25
12 13 14 14 17 17 18 19 17 19 19 19 21 24 25 25 28 29 27 27 26 29
14 16 16 17 17 18 17 18 18 18 18 18 20 22 24 25 25 26 27 24 24 24
19 19 19 20 19 18 18 18 17 18 18 19 21 22 23 24 25 24 21 22 19 21
21 21 20 21 20 17 18 17 17 19 20 21 22 22 23 24 25 26 22 19 20 18
19 18 20 20 20 19 18 18 18 20 22 24 26 25 26 29 28 28 28 24 19 20
16 16 19 20 22 23 21 22 23 25 28 30 31 36 36 39 40 34 32 31 27 24
18 17 18 19 21 25 26 26 28 29 28 31 33 38 37 39 43 43 35 35 32 30
19 20 19 21 23 26 28 30 31 33 34 35 37 43 36 37 43 46 41 39 36 33
20 22 23 25 26 25 27 31 34 36 39 41 43 44 38 36 41 39 42 39 36 35
21 24 26 28 29 30 32 35 37 41 42 44 47 41 35 35 38 37 41 38 35 35
24 28 31 34 36 39 41 43 46 48 47 46 43 40 33 35 39 34 37 38 35 31
Wind_Direction_500mb
339 337 353 337 350 350 356 351 1 7 11 16 15 14 17 8 12 11 8 360 354 341
339 339 327 341 351 336 347 353 350 3 10 15 15 16 26 10 8 10 4 4 358 355
328 337 331 333 333 335 340 347 351 354 0 4 8 9 18 16 3 0 358 354 350 350
305 319 330 328 318 322 330 335 340 343 344 345 351 354 359 1 0 1 357 350 344 349
286 301 314 321 316 312 317 323 328 335 328 328 332 338 345 347 347 352 353 353 356 355
281 291 303 311 315 306 310 316 321 329 323 321 319 324 331 336 337 335 342 339 340 341
282 283 293 298 304 302 305 310 318 319 319 318 311 311 316 322 326 326 323 322 320 321
285 281 290 290 298 299 299 305 309 313 314 310 307 304 297 305 309 312 313 308 307 304
273 279 288 284 286 296 295 297 301 303 306 309 302 295 306 305 307 309 303 304 301 298
271 273 282 284 282 287 287 289 293 299 301 303 302 303 302 301 299 300 292 293 296 300
266 268 272 278 281 284 281 280 284 291 295 297 301 313 307 296 297 294 284 283 285 286
266 267 269 272 277 282 280 277 279 285 290 293 297 300 308 298 296 287 283 283 281 278
267 269 270 273 277 280 280 281 284 285 287 290 296 298 308 302 294 287 290 288 292 287
275 279 284 285 285 287 284 283 285 286 288 287 286 287 299 302 298 287 289 294 292 289
Wind_Speed_850mb
14 12 14 17 15 17 20 22 27 26 27 32 34 34 33 29 26 27 26 29 29 25
11 11 12 16 16 17 19 20 21 22 25 29 30 32 31 30 29 29 28 26 26 27
11 12 12 15 16 18 18 19 20 20 21 22 25 27 29 26 28 28 27 26 28 25
12 13 14 14 17 17 18 19 17 19 19 19 21 24 25 25 28 29 27 27 26 29
14 16 16 17 17 18 17 18 18 18 18 18 20 22 24 25 25 26 27 24 24 24
19 19 19 20 19 18 18 18 17 18 18 19 21 22 23 24 25 24 21 22 19 21
21 21 20 21 20 17 18 17 17 19 20 21 22 22 23 24 25 26 22 19 20 18
19 18 20 20 20 19 18 18 18 20 22 24 26 25 26 29 28 28 28 24 19 20
16 16 19 20 22 23 21 22 23 25 28 30 31 36 36 39 40 34 32 31 27 24
18 17 18 19 21 25 26 26 28 29 28 31 33 38 37 39 43 43 35 35 32 30
19 20 19 21 23 26 28 30 31 33 34 35 37 43 36 37 43 46 41 39 36 33
20 22 23 25 26 25 27 31 34 36 39 41 43 44 38 36 41 39 42 39 36 35
21 24 26 28 29 30 32 35 37 41 42 44 47 41 35 35 38 37 41 38 35 35
24 28 31 34 36 39 41 43 46 48 47 46 43 40 33 35 39 34 37 38 35 31
Wind_Direction_850mb
339 337 353 337 350 350 356 351 1 7 11 16 15 14 17 8 12 11 8 360 354 341
339 339 327 341 351 336 347 353 350 3 10 15 15 16 26 10 8 10 4 4 358 355
328 337 331 333 333 335 340 347 351 354 0 4 8 9 18 16 3 0 358 354 350 350
305 319 330 328 318 322 330 335 340 343 344 345 351 354 359 1 0 1 357 350 344 349
286 301 314 321 316 312 317 323 328 335 328 328 332 338 345 347 347 352 353 353 356 355
281 291 303 311 315 306 310 316 321 329 323 321 319 324 331 336 337 335 342 339 340 341
282 283 293 298 304 302 305 310 318 319 319 318 311 311 316 322 326 326 323 322 320 321
285 281 290 290 298 299 299 305 309 313 314 310 307 304 297 305 309 312 313 308 307 304
273 279 288 284 286 296 295 297 301 303 306 309 302 295 306 305 307 309 303 304 301 298
271 273 282 284 282 287 287 289 293 299 301 303 302 303 302 301 299 300 292 293 296 300
266 268 272 278 281 284 281 280 284 291 295 297 301 313 307 296 297 294 284 283 285 286
266 267 269 272 277 282 280 277 279 285 290 293 297 300 308 298 296 287 283 283 281 278
267 269 270 273 277 280 280 281 284 285 287 290 296 298 308 302 294 287 290 288 292 287
275 279 284 285 285 287 284 283 285 286 288 287 286 287 299 302 298 287 289 294 292 289